Terminal Aerodrome Forecast
Issued by NWS Topeka, KS

Home | Current Version | Previous Version | Graphics & Text | Print | Product List | Glossary On
Versions: 1 2 3 4 5 6 7 8 9 10 11 12 13 14 15 16
280
FTUS43 KTOP 030520
TAFTOP
TAF
KTOP 030520Z 0306/0406 28005KT P6SM FEW050 SCT150=

USA.gov is the U.S. government's official web portal to all federal, state and local government web resources and services.